Tracking 18987 objects as of 25-Feb-2018
HD Live streaming from Space Station
objects crossing your sky now

CZ-4C R/B

Track CZ-4C R/B now!
10-day predictions


NORAD ID: 39211
Int'l Code: 2013-037D
Perigee: 472.2 km
Apogee: 647.2 km
Inclination: 97.9 °
Period: 95.7 minutes
Semi major axis: 6930 km
RCS: Unknown
Launch date: July 19, 2013
Source: People's Republic of China (PRC)
Launch site: Taiyaun Space Center, China (TSC)

Note: This is a ROCKET BODY
aabbcc
Your satellite tracking list
Your tracking list is empty




NASA's NSSDC Master Catalog

Two Line Element Set (TLE):
1 39211U 13037D   18055.90800015 -.00000135 +00000-0 -33430-5 0  9991
2 39211 097.9155 152.0390 0126313 168.9825 191.4214 15.04657604252266
Source of the keplerian elements: AFSPC